Darstellungsparameter: Aktuell verwendete Einstellungen:
Skalierung der Graphiken ... ?
xyx+y,   Skalierungsfaktor:      Skalierung: Modus: x, Faktor: 1
Darstellungszeitraum ... ?
Vom - - bis: - -   Zeitraum: 28.09.2019 - 30.09.2019
Min/Max/Avg-Anzeige ... ?
Zeige MMA aktuell
Zeige MMA Monat
Zeige MMA alles
Zeige --A aktuell
Zeige --A Monat
Zeige --A alles
Keine MMA-Anzeige
MMA:
Average (ber die Originaldaten)
MMA-Basis: 28.09.2019 - 30.09.2019
Quicknavigation für Darstellung... ?
Tage:      1T, 2T, 3T, 5T -1T -2T -3T -5T +1T +2T +3T +5T
Wochen: 1W, 2W, 3W -1W -2W -3W +1W +2W +3W
Monate: 1M, 3M, 6M -1M -3M -6M +1M +3M +6M
Jahre:    1J, 3J, 5J, 10J -1J -3J -5J -10J +1J +3J +5J +10J
Nutze für die Darstellung ... ?
Originaldaten oder Mittelwerte auf ...
Stundenbasis Tagesbasis Wochenbasis
Monatsbasis Jahresbasis      Datenbasis: Original-Daten
Darstellen als:
Statistik (Auto) Statistik J:M      Darstellung:
Zur Graphik,    zurück zur Übersicht aller Sensoren.
 
Tabellarische Datenbersicht: ?
 
Sensor: Nr:Datum:Temp:Abs-Feuchte:Windchill:Wind:
Aussen-T/F 1 28-09-2019 00:00:00 13 C 10.66 g/m*3 13 C 0 km/h
2 28-09-2019 00:05:00 12.9 C 10.59 g/m*3 12.9 C 0 km/h
3 28-09-2019 00:10:00 12.9 C 10.59 g/m*3 12.9 C 0 km/h
4 28-09-2019 00:15:00 12.9 C 10.59 g/m*3 12.9 C 0 km/h
5 28-09-2019 00:20:00 12.9 C 10.71 g/m*3 12.9 C 0 km/h
6 28-09-2019 00:25:00 12.9 C 10.59 g/m*3 12.9 C 1.6 km/h
7 28-09-2019 00:30:00 12.9 C 10.71 g/m*3 12.9 C 1.6 km/h
8 28-09-2019 00:35:00 12.9 C 10.71 g/m*3 12.9 C 0 km/h
9 28-09-2019 00:40:00 12.8 C 10.64 g/m*3 12.8 C 0 km/h
10 28-09-2019 00:45:00 12.8 C 10.64 g/m*3 12.8 C 0 km/h
11 28-09-2019 00:50:00 12.8 C 10.64 g/m*3 12.8 C 3.2 km/h
12 28-09-2019 00:55:00 12.8 C 10.64 g/m*3 12.8 C 1.6 km/h
13 28-09-2019 01:00:00 12.8 C 10.64 g/m*3 12.8 C 4.8 km/h
14 28-09-2019 01:05:00 12.8 C 10.64 g/m*3 12.8 C 3.2 km/h
15 28-09-2019 01:10:00 12.9 C 10.71 g/m*3 12.9 C 3.2 km/h
16 28-09-2019 01:15:00 12.8 C 10.64 g/m*3 12.8 C 0 km/h
17 28-09-2019 01:20:00 12.8 C 10.64 g/m*3 12.8 C 0 km/h
18 28-09-2019 01:25:00 12.7 C 10.58 g/m*3 12.7 C 0 km/h
19 28-09-2019 01:30:00 12.8 C 10.64 g/m*3 12.8 C 1.6 km/h
20 28-09-2019 01:35:00 12.8 C 10.64 g/m*3 12.8 C 1.6 km/h
21 28-09-2019 01:40:00 12.9 C 10.82 g/m*3 12.9 C 9.7 km/h
22 28-09-2019 01:45:00 13.1 C 10.84 g/m*3 13.1 C 9.7 km/h
23 28-09-2019 01:50:00 13.2 C 10.91 g/m*3 13.2 C 1.6 km/h
24 28-09-2019 01:55:00 13.3 C 10.98 g/m*3 13.3 C 3.2 km/h
25 28-09-2019 02:00:00 13.6 C 11.18 g/m*3 13.6 C 4.8 km/h
Sensor: Nr:Datum:Temp:Abs-Feuchte:Windchill:Wind:
Aussen-T/F 26 28-09-2019 02:05:00 13.6 C 11.06 g/m*3 13.6 C 4.8 km/h
27 28-09-2019 02:10:00 13.7 C 11.13 g/m*3 13.7 C 11.3 km/h
28 28-09-2019 02:15:00 13.9 C 11.15 g/m*3 13.9 C 11.3 km/h
29 28-09-2019 02:20:00 14.2 C 11.23 g/m*3 14.2 C 16.1 km/h
30 28-09-2019 02:25:00 14.3 C 11.18 g/m*3 14.3 C 6.4 km/h
31 28-09-2019 02:30:00 14.4 C 11.25 g/m*3 14.4 C 9.7 km/h
32 28-09-2019 02:35:00 14.4 C 11.13 g/m*3 14.4 C 3.2 km/h
33 28-09-2019 02:40:00 14.5 C 11.19 g/m*3 14.5 C 8.1 km/h
34 28-09-2019 02:45:00 14.5 C 11.07 g/m*3 14.5 C 9.7 km/h
35 28-09-2019 02:50:00 14.7 C 11.21 g/m*3 14.7 C 11.3 km/h
36 28-09-2019 02:55:00 14.8 C 11.15 g/m*3 14.8 C 12.9 km/h
37 28-09-2019 03:00:00 14.8 C 11.15 g/m*3 14.8 C 8.1 km/h
38 28-09-2019 03:05:00 14.8 C 11.15 g/m*3 14.8 C 9.7 km/h
39 28-09-2019 03:10:00 14.8 C 11.27 g/m*3 14.8 C 8.1 km/h
40 28-09-2019 03:15:00 14.8 C 11.27 g/m*3 14.8 C 4.8 km/h
41 28-09-2019 03:20:00 14.9 C 11.34 g/m*3 14.9 C 4.8 km/h
42 28-09-2019 03:25:00 14.9 C 11.34 g/m*3 14.9 C 6.4 km/h
43 28-09-2019 03:30:00 14.9 C 11.34 g/m*3 14.9 C 9.7 km/h
44 28-09-2019 03:35:00 15 C 11.41 g/m*3 15 C 6.4 km/h
45 28-09-2019 03:40:00 14.9 C 11.47 g/m*3 14.9 C 8.1 km/h
46 28-09-2019 03:45:00 14.8 C 11.4 g/m*3 14.8 C 1.6 km/h
47 28-09-2019 03:50:00 14.7 C 11.46 g/m*3 14.7 C 8.1 km/h
48 28-09-2019 03:55:00 14.6 C 11.39 g/m*3 14.6 C 1.6 km/h
49 28-09-2019 04:00:00 14.4 C 11.25 g/m*3 14.4 C 9.7 km/h
50 28-09-2019 04:05:00 14.3 C 11.18 g/m*3 14.3 C 4.8 km/h
Sensor: Nr:Datum:Temp:Abs-Feuchte:Windchill:Wind:
Aussen-T/F 51 28-09-2019 04:10:00 14.2 C 11.23 g/m*3 14.2 C 1.6 km/h
52 28-09-2019 04:15:00 14.1 C 11.17 g/m*3 14.1 C 0 km/h
53 28-09-2019 04:20:00 14 C 11.1 g/m*3 14 C 3.2 km/h
54 28-09-2019 04:25:00 13.9 C 11.15 g/m*3 13.9 C 3.2 km/h
55 28-09-2019 04:30:00 13.9 C 11.15 g/m*3 13.9 C 4.8 km/h
56 28-09-2019 04:35:00 13.9 C 11.15 g/m*3 13.9 C 6.4 km/h
57 28-09-2019 04:40:00 13.9 C 11.15 g/m*3 13.9 C 9.7 km/h
58 28-09-2019 04:45:00 13.9 C 11.15 g/m*3 13.9 C 8.1 km/h
59 28-09-2019 04:50:00 14 C 11.22 g/m*3 14 C 12.9 km/h
60 28-09-2019 04:55:00 14 C 11.1 g/m*3 14 C 3.2 km/h
61 28-09-2019 05:00:00 13.9 C 11.03 g/m*3 13.9 C 3.2 km/h
62 28-09-2019 05:05:00 13.9 C 11.03 g/m*3 13.9 C 4.8 km/h
63 28-09-2019 05:10:00 13.9 C 11.03 g/m*3 13.9 C 6.4 km/h
64 28-09-2019 05:15:00 13.9 C 11.03 g/m*3 13.9 C 6.4 km/h
65 28-09-2019 05:20:00 13.8 C 10.96 g/m*3 13.8 C 1.6 km/h
66 28-09-2019 05:25:00 13.9 C 11.03 g/m*3 13.9 C 9.7 km/h
67 28-09-2019 05:30:00 13.9 C 11.03 g/m*3 13.9 C 4.8 km/h
68 28-09-2019 05:35:00 13.9 C 11.03 g/m*3 13.9 C 9.7 km/h
69 28-09-2019 05:40:00 13.9 C 11.03 g/m*3 13.9 C 6.4 km/h
70 28-09-2019 05:45:00 14.1 C 11.17 g/m*3 14.1 C 11.3 km/h
71 28-09-2019 05:50:00 14.1 C 11.17 g/m*3 14.1 C 9.7 km/h
72 28-09-2019 05:55:00 14.2 C 11.11 g/m*3 14.2 C 8.1 km/h
73 28-09-2019 06:00:00 14.3 C 11.18 g/m*3 14.3 C 8.1 km/h
74 28-09-2019 06:05:00 14.3 C 11.18 g/m*3 14.3 C 11.3 km/h
75 28-09-2019 06:10:00 14.4 C 11.25 g/m*3 14.4 C 12.9 km/h
Sensor: Nr:Datum:Temp:Abs-Feuchte:Windchill:Wind:
Aussen-T/F 76 28-09-2019 06:15:00 14.5 C 11.32 g/m*3 14.5 C 14.5 km/h
77 28-09-2019 06:20:00 14.5 C 11.32 g/m*3 14.5 C 1.6 km/h
78 28-09-2019 06:25:00 14.4 C 11.13 g/m*3 14.4 C 11.3 km/h
79 28-09-2019 06:30:00 14.4 C 11.13 g/m*3 14.4 C 8.1 km/h
80 28-09-2019 06:35:00 14.4 C 11.13 g/m*3 14.4 C 12.9 km/h
81 28-09-2019 06:40:00 14.4 C 11.13 g/m*3 14.4 C 6.4 km/h
82 28-09-2019 06:45:00 14.5 C 11.32 g/m*3 14.5 C 6.4 km/h
83 28-09-2019 06:50:00 14.4 C 11.25 g/m*3 14.4 C 14.5 km/h
84 28-09-2019 06:55:00 14.3 C 11.18 g/m*3 14.3 C 4.8 km/h
85 28-09-2019 07:00:00 14.3 C 11.18 g/m*3 14.3 C 8.1 km/h
86 28-09-2019 07:05:00 14.2 C 11.23 g/m*3 14.2 C 4.8 km/h
87 28-09-2019 07:10:00 14.1 C 11.17 g/m*3 14.1 C 1.6 km/h
88 28-09-2019 07:15:00 14.1 C 11.17 g/m*3 14.1 C 4.8 km/h
89 28-09-2019 07:20:00 14.1 C 11.29 g/m*3 14.1 C 0 km/h
90 28-09-2019 07:25:00 14.1 C 11.29 g/m*3 14.1 C 0 km/h
91 28-09-2019 07:30:00 14.1 C 11.29 g/m*3 14.1 C 1.6 km/h
92 28-09-2019 07:35:00 14.1 C 11.29 g/m*3 14.1 C 0 km/h
93 28-09-2019 07:40:00 14.1 C 11.41 g/m*3 14.1 C 0 km/h
94 28-09-2019 07:45:00 14 C 11.34 g/m*3 14 C 0 km/h
95 28-09-2019 07:50:00 14 C 11.34 g/m*3 14 C 1.6 km/h
96 28-09-2019 07:55:00 14 C 11.34 g/m*3 14 C 0 km/h
97 28-09-2019 08:00:00 14 C 11.34 g/m*3 14 C 0 km/h
98 28-09-2019 08:05:00 13.9 C 11.27 g/m*3 13.9 C 8.1 km/h
99 28-09-2019 08:10:00 13.9 C 11.27 g/m*3 13.9 C 11.3 km/h
100 28-09-2019 08:15:00 13.9 C 11.27 g/m*3 13.9 C 4.8 km/h
Sensor: Nr:Datum:Temp:Abs-Feuchte:Windchill:Wind:
Aussen-T/F 101 28-09-2019 08:20:00 13.9 C 11.27 g/m*3 13.9 C 8.1 km/h
102 28-09-2019 08:25:00 13.9 C 11.15 g/m*3 13.9 C 14.5 km/h
103 28-09-2019 08:30:00 14 C 11.22 g/m*3 14 C 11.3 km/h
104 28-09-2019 08:35:00 13.9 C 11.15 g/m*3 13.9 C 1.6 km/h
105 28-09-2019 08:40:00 13.9 C 11.15 g/m*3 13.9 C 8.1 km/h
106 28-09-2019 08:45:00 13.8 C 11.08 g/m*3 13.8 C 9.7 km/h
107 28-09-2019 08:50:00 13.8 C 11.08 g/m*3 13.8 C 8.1 km/h
108 28-09-2019 08:55:00 13.8 C 10.96 g/m*3 13.8 C 9.7 km/h
109 28-09-2019 09:00:00 13.9 C 11.03 g/m*3 13.9 C 17.7 km/h
110 28-09-2019 09:05:00 13.9 C 11.03 g/m*3 13.9 C 12.9 km/h
111 28-09-2019 09:10:00 14.1 C 11.04 g/m*3 14.1 C 11.3 km/h
112 28-09-2019 09:15:00 14.2 C 11.11 g/m*3 14.2 C 11.3 km/h
113 28-09-2019 09:20:00 14.3 C 11.06 g/m*3 14.3 C 11.3 km/h
114 28-09-2019 09:25:00 14.4 C 11.25 g/m*3 14.4 C 11.3 km/h
115 28-09-2019 09:30:00 14.4 C 11.13 g/m*3 14.4 C 11.3 km/h
116 28-09-2019 09:35:00 14.6 C 11.26 g/m*3 14.6 C 6.4 km/h
117 28-09-2019 09:40:00 14.6 C 11.14 g/m*3 14.6 C 22.5 km/h
118 28-09-2019 09:45:00 14.6 C 11.01 g/m*3 14.6 C 8.1 km/h
119 28-09-2019 09:50:00 14.6 C 11.14 g/m*3 14.6 C 12.9 km/h
120 28-09-2019 09:55:00 14.7 C 11.08 g/m*3 14.7 C 9.7 km/h
121 28-09-2019 10:00:00 14.7 C 11.08 g/m*3 14.7 C 11.3 km/h
122 28-09-2019 10:05:00 14.8 C 11.15 g/m*3 14.8 C 16.1 km/h
123 28-09-2019 10:10:00 15.1 C 11.22 g/m*3 15.1 C 16.1 km/h
124 28-09-2019 10:15:00 15.2 C 11.16 g/m*3 15.2 C 11.3 km/h
125 28-09-2019 10:20:00 15.3 C 11.23 g/m*3 15.3 C 11.3 km/h
Sensor: Nr:Datum:Temp:Abs-Feuchte:Windchill:Wind:
Aussen-T/F 126 28-09-2019 10:25:00 15.4 C 11.3 g/m*3 15.4 C 14.5 km/h
127 28-09-2019 10:30:00 15.5 C 11.37 g/m*3 15.5 C 11.3 km/h
128 28-09-2019 10:35:00 15.6 C 11.3 g/m*3 15.6 C 6.4 km/h
129 28-09-2019 10:40:00 15.7 C 11.24 g/m*3 15.7 C 14.5 km/h
130 28-09-2019 10:45:00 15.8 C 11.31 g/m*3 15.8 C 9.7 km/h
131 28-09-2019 10:50:00 15.8 C 11.04 g/m*3 15.8 C 14.5 km/h
132 28-09-2019 10:55:00 15.9 C 11.1 g/m*3 15.9 C 16.1 km/h
133 28-09-2019 11:00:00 15.9 C 10.97 g/m*3 15.9 C 19.3 km/h
134 28-09-2019 11:05:00 15.9 C 10.97 g/m*3 15.9 C 20.9 km/h
135 28-09-2019 11:10:00 16 C 11.04 g/m*3 16 C 16.1 km/h
136 28-09-2019 11:15:00 16.2 C 11.17 g/m*3 16.2 C 17.7 km/h
137 28-09-2019 11:20:00 16.3 C 11.24 g/m*3 16.3 C 12.9 km/h
138 28-09-2019 11:25:00 16.3 C 11.1 g/m*3 16.3 C 19.3 km/h
139 28-09-2019 11:30:00 16.4 C 11.31 g/m*3 16.4 C 20.9 km/h
140 28-09-2019 11:35:00 16.5 C 11.09 g/m*3 16.5 C 24.1 km/h
141 28-09-2019 11:40:00 16.6 C 11.16 g/m*3 16.6 C 19.3 km/h
142 28-09-2019 11:45:00 16.5 C 11.09 g/m*3 16.5 C 12.9 km/h
143 28-09-2019 11:50:00 16.5 C 11.37 g/m*3 16.5 C 12.9 km/h
144 28-09-2019 11:55:00 16.6 C 11.3 g/m*3 16.6 C 12.9 km/h
145 28-09-2019 12:00:00 16.6 C 11.16 g/m*3 16.6 C 19.3 km/h
146 28-09-2019 12:05:00 16.7 C 11.37 g/m*3 16.7 C 8.1 km/h
147 28-09-2019 12:10:00 16.8 C 11.44 g/m*3 16.8 C 11.3 km/h
148 28-09-2019 12:15:00 16.8 C 11.29 g/m*3 16.8 C 14.5 km/h
149 28-09-2019 12:20:00 16.9 C 11.22 g/m*3 16.9 C 16.1 km/h
150 28-09-2019 12:25:00 16.9 C 11.36 g/m*3 16.9 C 8.1 km/h
Sensor: Nr:Datum:Temp:Abs-Feuchte:Windchill:Wind:
Aussen-T/F 151 28-09-2019 12:30:00 16.9 C 11.36 g/m*3 16.9 C 11.3 km/h
152 28-09-2019 12:35:00 16.9 C 11.22 g/m*3 16.9 C 17.7 km/h
153 28-09-2019 12:40:00 16.8 C 11.15 g/m*3 16.8 C 14.5 km/h
154 28-09-2019 12:45:00 16.9 C 11.22 g/m*3 16.9 C 8.1 km/h
155 28-09-2019 12:50:00 16.9 C 11.22 g/m*3 16.9 C 11.3 km/h
156 28-09-2019 12:55:00 17.1 C 11.21 g/m*3 17.1 C 17.7 km/h
157 28-09-2019 13:00:00 17.2 C 11.42 g/m*3 17.2 C 11.3 km/h
158 28-09-2019 13:05:00 17.2 C 11.28 g/m*3 17.2 C 19.3 km/h
159 28-09-2019 13:10:00 17.2 C 11.28 g/m*3 17.2 C 20.9 km/h
160 28-09-2019 13:15:00 17.2 C 11.28 g/m*3 17.2 C 11.3 km/h
161 28-09-2019 13:20:00 17.2 C 11.28 g/m*3 17.2 C 19.3 km/h
162 28-09-2019 13:25:00 17.3 C 11.2 g/m*3 17.3 C 16.1 km/h
163 28-09-2019 13:30:00 17.2 C 11.28 g/m*3 17.2 C 22.5 km/h
164 28-09-2019 13:35:00 17.1 C 11.21 g/m*3 17.1 C 24.1 km/h
165 28-09-2019 13:40:00 17.2 C 11.28 g/m*3 17.2 C 19.3 km/h
166 28-09-2019 13:45:00 17.2 C 11.28 g/m*3 17.2 C 14.5 km/h
167 28-09-2019 13:50:00 17.3 C 11.34 g/m*3 17.3 C 17.7 km/h
168 28-09-2019 13:55:00 17.3 C 11.49 g/m*3 17.3 C 11.3 km/h
169 28-09-2019 14:00:00 17.4 C 11.56 g/m*3 17.4 C 14.5 km/h
170 28-09-2019 14:05:00 17.4 C 11.41 g/m*3 17.4 C 12.9 km/h
171 28-09-2019 14:10:00 17.4 C 11.41 g/m*3 17.4 C 14.5 km/h
172 28-09-2019 14:15:00 17.4 C 11.56 g/m*3 17.4 C 24.1 km/h
173 28-09-2019 14:20:00 17.5 C 11.48 g/m*3 17.5 C 19.3 km/h
174 28-09-2019 14:25:00 17.4 C 11.12 g/m*3 17.4 C 24.1 km/h
175 28-09-2019 14:30:00 17.5 C 11.48 g/m*3 17.5 C 16.1 km/h
Sensor: Nr:Datum:Temp:Abs-Feuchte:Windchill:Wind:
Aussen-T/F 176 28-09-2019 14:35:00 17.6 C 11.4 g/m*3 17.6 C 14.5 km/h
177 28-09-2019 14:40:00 17.7 C 11.47 g/m*3 17.7 C 16.1 km/h
178 28-09-2019 14:45:00 17.7 C 11.32 g/m*3 17.7 C 20.9 km/h
179 28-09-2019 14:50:00 17.5 C 11.33 g/m*3 17.5 C 17.7 km/h
180 28-09-2019 14:55:00 17.4 C 11.26 g/m*3 17.4 C 12.9 km/h
181 28-09-2019 15:00:00 17.5 C 11.48 g/m*3 17.5 C 12.9 km/h
182 28-09-2019 15:05:00 17.5 C 11.33 g/m*3 17.5 C 19.3 km/h
183 28-09-2019 15:10:00 17.4 C 11.26 g/m*3 17.4 C 16.1 km/h
184 28-09-2019 15:15:00 17.4 C 11.41 g/m*3 17.4 C 11.3 km/h
185 28-09-2019 15:20:00 17.3 C 11.49 g/m*3 17.3 C 17.7 km/h
186 28-09-2019 15:25:00 17.3 C 11.34 g/m*3 17.3 C 16.1 km/h
187 28-09-2019 15:30:00 17.1 C 11.21 g/m*3 17.1 C 11.3 km/h
188 28-09-2019 15:35:00 17 C 11.29 g/m*3 17 C 14.5 km/h
189 28-09-2019 15:40:00 17 C 11.29 g/m*3 17 C 19.3 km/h
190 28-09-2019 15:45:00 16.9 C 11.22 g/m*3 16.9 C 19.3 km/h
191 28-09-2019 15:50:00 16.9 C 11.22 g/m*3 16.9 C 11.3 km/h
192 28-09-2019 15:55:00 16.7 C 11.08 g/m*3 16.7 C 16.1 km/h
193 28-09-2019 16:00:00 16.7 C 11.37 g/m*3 16.7 C 11.3 km/h
194 28-09-2019 16:05:00 16.7 C 11.37 g/m*3 16.7 C 11.3 km/h
195 28-09-2019 16:10:00 16.8 C 11.44 g/m*3 16.8 C 14.5 km/h
196 28-09-2019 16:15:00 17 C 11.43 g/m*3 17 C 9.7 km/h
197 28-09-2019 16:20:00 17.4 C 11.56 g/m*3 17.4 C 12.9 km/h
198 28-09-2019 16:25:00 17.6 C 11.55 g/m*3 17.6 C 16.1 km/h
199 28-09-2019 16:30:00 17.7 C 11.47 g/m*3 17.7 C 17.7 km/h
200 28-09-2019 16:35:00 17.7 C 11.62 g/m*3 17.7 C 16.1 km/h
Sensor: Nr:Datum:Temp:Abs-Feuchte:Windchill:Wind:
Aussen-T/F 201 28-09-2019 16:40:00 17.7 C 11.62 g/m*3 17.7 C 22.5 km/h
202 28-09-2019 16:45:00 17.7 C 11.47 g/m*3 17.7 C 16.1 km/h
203 28-09-2019 16:50:00 17.7 C 11.47 g/m*3 17.7 C 9.7 km/h
204 28-09-2019 16:55:00 17.6 C 11.4 g/m*3 17.6 C 12.9 km/h
205 28-09-2019 17:00:00 17.6 C 11.4 g/m*3 17.6 C 14.5 km/h
206 28-09-2019 17:05:00 17.6 C 11.4 g/m*3 17.6 C 16.1 km/h
207 28-09-2019 17:10:00 17.4 C 11.26 g/m*3 17.4 C 20.9 km/h
208 28-09-2019 17:15:00 17.1 C 11.21 g/m*3 17.1 C 16.1 km/h
209 28-09-2019 17:20:00 17.1 C 11.35 g/m*3 17.1 C 14.5 km/h
210 28-09-2019 17:25:00 17.3 C 11.49 g/m*3 17.3 C 22.5 km/h
211 28-09-2019 17:30:00 17.8 C 11.54 g/m*3 17.8 C 9.7 km/h
212 28-09-2019 17:35:00 18.1 C 11.43 g/m*3 18.1 C 17.7 km/h
213 28-09-2019 17:40:00 18.2 C 11.66 g/m*3 18.2 C 8.1 km/h
214 28-09-2019 17:45:00 18.2 C 11.5 g/m*3 18.2 C 12.9 km/h
215 28-09-2019 17:50:00 18.2 C 11.5 g/m*3 18.2 C 19.3 km/h
216 28-09-2019 17:55:00 18 C 11.37 g/m*3 18 C 19.3 km/h
217 28-09-2019 18:00:00 17.8 C 11.23 g/m*3 17.8 C 16.1 km/h
218 28-09-2019 18:05:00 17.8 C 11.38 g/m*3 17.8 C 11.3 km/h
219 28-09-2019 18:10:00 17.8 C 11.38 g/m*3 17.8 C 11.3 km/h
220 28-09-2019 18:15:00 17.7 C 11.47 g/m*3 17.7 C 9.7 km/h
221 28-09-2019 18:20:00 17.5 C 11.33 g/m*3 17.5 C 9.7 km/h
222 28-09-2019 18:25:00 17.4 C 11.26 g/m*3 17.4 C 14.5 km/h
223 28-09-2019 18:30:00 17.3 C 11.34 g/m*3 17.3 C 9.7 km/h
224 28-09-2019 18:35:00 17 C 11.14 g/m*3 17 C 9.7 km/h
225 28-09-2019 18:40:00 16.7 C 11.08 g/m*3 16.7 C 9.7 km/h
Sensor: Nr:Datum:Temp:Abs-Feuchte:Windchill:Wind:
Aussen-T/F 226 28-09-2019 18:45:00 16.4 C 10.89 g/m*3 16.4 C 6.4 km/h
227 28-09-2019 18:50:00 16.2 C 10.76 g/m*3 16.2 C 12.9 km/h
228 28-09-2019 18:55:00 16.1 C 10.83 g/m*3 16.1 C 11.3 km/h
229 28-09-2019 19:00:00 16.1 C 10.83 g/m*3 16.1 C 6.4 km/h
230 28-09-2019 19:05:00 15.9 C 10.7 g/m*3 15.9 C 11.3 km/h
231 28-09-2019 19:10:00 15.9 C 10.83 g/m*3 15.9 C 6.4 km/h
232 28-09-2019 19:15:00 15.8 C 10.77 g/m*3 15.8 C 9.7 km/h
233 28-09-2019 19:20:00 15.7 C 10.84 g/m*3 15.7 C 4.8 km/h
234 28-09-2019 19:25:00 15.6 C 10.77 g/m*3 15.6 C 11.3 km/h
235 28-09-2019 19:30:00 15.6 C 10.77 g/m*3 15.6 C 14.5 km/h
236 28-09-2019 19:35:00 15.6 C 10.91 g/m*3 15.6 C 8.1 km/h
237 28-09-2019 19:40:00 15.6 C 10.77 g/m*3 15.6 C 11.3 km/h
238 28-09-2019 19:45:00 15.6 C 10.77 g/m*3 15.6 C 6.4 km/h
239 28-09-2019 19:50:00 15.5 C 10.71 g/m*3 15.5 C 11.3 km/h
240 28-09-2019 19:55:00 15.5 C 10.71 g/m*3 15.5 C 6.4 km/h
241 28-09-2019 20:00:00 15.6 C 10.77 g/m*3 15.6 C 11.3 km/h
242 28-09-2019 20:05:00 15.6 C 10.77 g/m*3 15.6 C 6.4 km/h
243 28-09-2019 20:10:00 15.6 C 10.77 g/m*3 15.6 C 6.4 km/h
244 28-09-2019 20:15:00 15.5 C 10.71 g/m*3 15.5 C 3.2 km/h
245 28-09-2019 20:20:00 15.3 C 10.71 g/m*3 15.3 C 6.4 km/h
246 28-09-2019 20:25:00 15.2 C 10.64 g/m*3 15.2 C 1.6 km/h
247 28-09-2019 20:30:00 15.1 C 10.71 g/m*3 15.1 C 6.4 km/h
248 28-09-2019 20:35:00 15 C 10.64 g/m*3 15 C 1.6 km/h
249 28-09-2019 20:40:00 14.9 C 10.58 g/m*3 14.9 C 8.1 km/h
250 28-09-2019 20:45:00 15 C 10.77 g/m*3 15 C 1.6 km/h
Sensor: Nr:Datum:Temp:Abs-Feuchte:Windchill:Wind:
Aussen-T/F 251 28-09-2019 20:50:00 15 C 10.64 g/m*3 15 C 6.4 km/h
252 28-09-2019 20:55:00 15.1 C 10.71 g/m*3 15.1 C 11.3 km/h
253 28-09-2019 21:00:00 15.1 C 10.71 g/m*3 15.1 C 3.2 km/h
254 28-09-2019 21:05:00 15 C 10.64 g/m*3 15 C 1.6 km/h
255 28-09-2019 21:10:00 14.9 C 10.58 g/m*3 14.9 C 1.6 km/h
256 28-09-2019 21:15:00 14.8 C 10.51 g/m*3 14.8 C 3.2 km/h
257 28-09-2019 21:20:00 14.8 C 10.64 g/m*3 14.8 C 9.7 km/h
258 28-09-2019 21:25:00 14.8 C 10.51 g/m*3 14.8 C 12.9 km/h
259 28-09-2019 21:30:00 14.9 C 10.58 g/m*3 14.9 C 9.7 km/h
260 28-09-2019 21:35:00 15.1 C 10.58 g/m*3 15.1 C 14.5 km/h
261 28-09-2019 21:40:00 15.1 C 10.58 g/m*3 15.1 C 6.4 km/h
262 28-09-2019 21:45:00 15 C 10.51 g/m*3 15 C 8.1 km/h
263 28-09-2019 21:50:00 15.1 C 10.58 g/m*3 15.1 C 14.5 km/h
264 28-09-2019 21:55:00 15.1 C 10.58 g/m*3 15.1 C 8.1 km/h
265 28-09-2019 22:00:00 15.2 C 10.51 g/m*3 15.2 C 14.5 km/h
266 28-09-2019 22:05:00 15.3 C 10.58 g/m*3 15.3 C 11.3 km/h
267 28-09-2019 22:10:00 15.3 C 10.58 g/m*3 15.3 C 12.9 km/h
268 28-09-2019 22:15:00 15.3 C 10.58 g/m*3 15.3 C 11.3 km/h
269 28-09-2019 22:20:00 15.4 C 10.64 g/m*3 15.4 C 22.5 km/h
270 28-09-2019 22:25:00 15.3 C 10.58 g/m*3 15.3 C 12.9 km/h
271 28-09-2019 22:30:00 15.3 C 10.58 g/m*3 15.3 C 9.7 km/h
272 28-09-2019 22:35:00 15.2 C 10.51 g/m*3 15.2 C 8.1 km/h
273 28-09-2019 22:40:00 15.1 C 10.45 g/m*3 15.1 C 3.2 km/h
274 28-09-2019 22:45:00 14.9 C 10.45 g/m*3 14.9 C 3.2 km/h
275 28-09-2019 22:50:00 14.7 C 10.32 g/m*3 14.7 C 3.2 km/h
Sensor: Nr:Datum:Temp:Abs-Feuchte:Windchill:Wind:
Aussen-T/F 276 28-09-2019 22:55:00 14.6 C 10.39 g/m*3 14.6 C 1.6 km/h
277 28-09-2019 23:00:00 14.4 C 10.38 g/m*3 14.4 C 0 km/h
278 28-09-2019 23:05:00 14.3 C 10.32 g/m*3 14.3 C 3.2 km/h
279 28-09-2019 23:10:00 14.1 C 10.32 g/m*3 14.1 C 1.6 km/h
280 28-09-2019 23:15:00 14 C 10.25 g/m*3 14 C 4.8 km/h
281 28-09-2019 23:20:00 13.9 C 10.31 g/m*3 13.9 C 1.6 km/h
282 28-09-2019 23:25:00 13.9 C 10.31 g/m*3 13.9 C 4.8 km/h
283 28-09-2019 23:30:00 14 C 10.37 g/m*3 14 C 9.7 km/h
284 28-09-2019 23:35:00 14.2 C 10.38 g/m*3 14.2 C 14.5 km/h
285 28-09-2019 23:40:00 14.4 C 10.38 g/m*3 14.4 C 3.2 km/h
286 28-09-2019 23:45:00 14.3 C 10.32 g/m*3 14.3 C 4.8 km/h
287 28-09-2019 23:50:00 14.2 C 10.26 g/m*3 14.2 C 6.4 km/h
288 28-09-2019 23:55:00 14.1 C 10.32 g/m*3 14.1 C 0 km/h
289 29-09-2019 00:00:00 14.1 C 10.32 g/m*3 14.1 C 0 km/h
290 29-09-2019 00:05:00 13.9 C 10.19 g/m*3 13.9 C 6.4 km/h
291 29-09-2019 00:10:00 13.9 C 10.31 g/m*3 13.9 C 3.2 km/h
292 29-09-2019 00:15:00 13.8 C 10.25 g/m*3 13.8 C 1.6 km/h
293 29-09-2019 00:20:00 13.8 C 10.25 g/m*3 13.8 C 4.8 km/h
294 29-09-2019 00:25:00 13.8 C 10.37 g/m*3 13.8 C 0 km/h
295 29-09-2019 00:30:00 13.8 C 10.37 g/m*3 13.8 C 0 km/h
296 29-09-2019 00:35:00 13.8 C 10.37 g/m*3 13.8 C 0 km/h
297 29-09-2019 00:40:00 13.8 C 10.37 g/m*3 13.8 C 8.1 km/h
298 29-09-2019 00:45:00 13.9 C 10.43 g/m*3 13.9 C 8.1 km/h
299 29-09-2019 00:50:00 13.9 C 10.31 g/m*3 13.9 C 1.6 km/h
300 29-09-2019 00:55:00 14 C 10.49 g/m*3 14 C 0 km/h
Sensor: Nr:Datum:Temp:Abs-Feuchte:Windchill:Wind:
Aussen-T/F 301 29-09-2019 01:00:00 14 C 10.49 g/m*3 14 C 0 km/h
302 29-09-2019 01:05:00 14 C 10.49 g/m*3 14 C 1.6 km/h
303 29-09-2019 01:10:00 14 C 10.37 g/m*3 14 C 0 km/h
304 29-09-2019 01:15:00 14.1 C 10.44 g/m*3 14.1 C 4.8 km/h
305 29-09-2019 01:20:00 14 C 10.37 g/m*3 14 C 0 km/h
306 29-09-2019 01:25:00 14 C 10.37 g/m*3 14 C 0 km/h
307 29-09-2019 01:30:00 14 C 10.37 g/m*3 14 C 0 km/h
308 29-09-2019 01:35:00 13.9 C 10.31 g/m*3 13.9 C 1.6 km/h
309 29-09-2019 01:40:00 13.9 C 10.43 g/m*3 13.9 C 0 km/h
310 29-09-2019 01:45:00 13.9 C 10.43 g/m*3 13.9 C 0 km/h
311 29-09-2019 01:50:00 13.8 C 10.37 g/m*3 13.8 C 0 km/h
312 29-09-2019 01:55:00 13.8 C 10.37 g/m*3 13.8 C 0 km/h
313 29-09-2019 02:00:00 13.8 C 10.48 g/m*3 13.8 C 0 km/h
314 29-09-2019 02:05:00 13.7 C 10.42 g/m*3 13.7 C 0 km/h
315 29-09-2019 02:10:00 13.7 C 10.42 g/m*3 13.7 C 0 km/h
316 29-09-2019 02:15:00 13.7 C 10.42 g/m*3 13.7 C 0 km/h
317 29-09-2019 02:20:00 13.7 C 10.54 g/m*3 13.7 C 0 km/h
318 29-09-2019 02:25:00 13.6 C 10.47 g/m*3 13.6 C 0 km/h
319 29-09-2019 02:30:00 13.6 C 10.47 g/m*3 13.6 C 0 km/h
320 29-09-2019 02:35:00 13.6 C 10.47 g/m*3 13.6 C 0 km/h
321 29-09-2019 02:40:00 13.6 C 10.47 g/m*3 13.6 C 0 km/h
322 29-09-2019 02:45:00 13.6 C 10.47 g/m*3 13.6 C 0 km/h
323 29-09-2019 02:50:00 13.6 C 10.59 g/m*3 13.6 C 0 km/h
324 29-09-2019 02:55:00 13.6 C 10.59 g/m*3 13.6 C 0 km/h
325 29-09-2019 03:00:00 13.6 C 10.59 g/m*3 13.6 C 0 km/h
Sensor: Nr:Datum:Temp:Abs-Feuchte:Windchill:Wind:
Aussen-T/F 326 29-09-2019 03:05:00 13.6 C 10.59 g/m*3 13.6 C 0 km/h
327 29-09-2019 03:10:00 13.6 C 10.59 g/m*3 13.6 C 0 km/h
328 29-09-2019 03:15:00 13.6 C 10.59 g/m*3 13.6 C 0 km/h
329 29-09-2019 03:20:00 13.5 C 10.53 g/m*3 13.5 C 0 km/h
330 29-09-2019 03:25:00 13.5 C 10.53 g/m*3 13.5 C 0 km/h
331 29-09-2019 03:30:00 13.4 C 10.46 g/m*3 13.4 C 0 km/h
332 29-09-2019 03:35:00 13.4 C 10.46 g/m*3 13.4 C 0 km/h
333 29-09-2019 03:40:00 13.4 C 10.58 g/m*3 13.4 C 0 km/h
334 29-09-2019 03:45:00 13.4 C 10.46 g/m*3 13.4 C 0 km/h
335 29-09-2019 03:50:00 13.4 C 10.46 g/m*3 13.4 C 0 km/h
336 29-09-2019 03:55:00 13.4 C 10.58 g/m*3 13.4 C 0 km/h
337 29-09-2019 04:00:00 13.4 C 10.58 g/m*3 13.4 C 0 km/h
338 29-09-2019 04:05:00 13.4 C 10.58 g/m*3 13.4 C 0 km/h
339 29-09-2019 04:10:00 13.4 C 10.58 g/m*3 13.4 C 0 km/h
340 29-09-2019 04:15:00 13.4 C 10.58 g/m*3 13.4 C 0 km/h
341 29-09-2019 04:20:00 13.5 C 10.64 g/m*3 13.5 C 0 km/h
342 29-09-2019 04:25:00 13.5 C 10.64 g/m*3 13.5 C 0 km/h
343 29-09-2019 04:30:00 13.5 C 10.64 g/m*3 13.5 C 0 km/h
344 29-09-2019 04:35:00 13.6 C 10.71 g/m*3 13.6 C 0 km/h
345 29-09-2019 04:40:00 13.6 C 10.71 g/m*3 13.6 C 0 km/h
346 29-09-2019 04:45:00 13.6 C 10.71 g/m*3 13.6 C 0 km/h
347 29-09-2019 04:50:00 13.7 C 10.78 g/m*3 13.7 C 0 km/h
348 29-09-2019 04:55:00 13.7 C 10.78 g/m*3 13.7 C 0 km/h
349 29-09-2019 05:00:00 13.7 C 10.78 g/m*3 13.7 C 0 km/h
350 29-09-2019 05:05:00 13.8 C 10.72 g/m*3 13.8 C 0 km/h
Sensor: Nr:Datum:Temp:Abs-Feuchte:Windchill:Wind:
Aussen-T/F 351 29-09-2019 05:10:00 13.8 C 10.72 g/m*3 13.8 C 0 km/h
352 29-09-2019 05:15:00 13.8 C 10.72 g/m*3 13.8 C 0 km/h
353 29-09-2019 05:20:00 13.8 C 10.72 g/m*3 13.8 C 0 km/h
354 29-09-2019 05:25:00 13.8 C 10.72 g/m*3 13.8 C 0 km/h
355 29-09-2019 05:30:00 13.8 C 10.72 g/m*3 13.8 C 0 km/h
356 29-09-2019 05:35:00 13.8 C 10.6 g/m*3 13.8 C 3.2 km/h
357 29-09-2019 05:40:00 13.8 C 10.6 g/m*3 13.8 C 0 km/h
358 29-09-2019 05:45:00 13.9 C 10.55 g/m*3 13.9 C 0 km/h
359 29-09-2019 05:50:00 13.9 C 10.55 g/m*3 13.9 C 0 km/h
360 29-09-2019 05:55:00 13.9 C 10.55 g/m*3 13.9 C 0 km/h
361 29-09-2019 06:00:00 13.9 C 10.55 g/m*3 13.9 C 3.2 km/h
362 29-09-2019 06:05:00 13.9 C 10.43 g/m*3 13.9 C 1.6 km/h
363 29-09-2019 06:10:00 13.9 C 10.43 g/m*3 13.9 C 0 km/h
364 29-09-2019 06:15:00 14 C 10.49 g/m*3 14 C 0 km/h
365 29-09-2019 06:20:00 14 C 10.49 g/m*3 14 C 0 km/h
366 29-09-2019 06:25:00 14 C 10.49 g/m*3 14 C 0 km/h
367 29-09-2019 06:30:00 14 C 10.49 g/m*3 14 C 0 km/h
368 29-09-2019 06:35:00 13.9 C 10.31 g/m*3 13.9 C 0 km/h
369 29-09-2019 06:40:00 13.9 C 10.43 g/m*3 13.9 C 0 km/h
370 29-09-2019 06:45:00 13.9 C 10.31 g/m*3 13.9 C 0 km/h
371 29-09-2019 06:50:00 13.9 C 10.31 g/m*3 13.9 C 3.2 km/h
372 29-09-2019 06:55:00 14 C 10.37 g/m*3 14 C 3.2 km/h
373 29-09-2019 07:00:00 14.1 C 10.44 g/m*3 14.1 C 0 km/h
374 29-09-2019 07:05:00 14.1 C 10.44 g/m*3 14.1 C 1.6 km/h
375 29-09-2019 07:10:00 14.1 C 10.56 g/m*3 14.1 C 0 km/h
Sensor: Nr:Datum:Temp:Abs-Feuchte:Windchill:Wind:
Aussen-T/F 376 29-09-2019 07:15:00 14.1 C 10.44 g/m*3 14.1 C 1.6 km/h
377 29-09-2019 07:20:00 14.1 C 10.56 g/m*3 14.1 C 3.2 km/h
378 29-09-2019 07:25:00 14 C 10.49 g/m*3 14 C 3.2 km/h
379 29-09-2019 07:30:00 14 C 10.49 g/m*3 14 C 3.2 km/h
380 29-09-2019 07:35:00 13.9 C 10.43 g/m*3 13.9 C 0 km/h
381 29-09-2019 07:40:00 13.9 C 10.43 g/m*3 13.9 C 0 km/h
382 29-09-2019 07:45:00 13.9 C 10.43 g/m*3 13.9 C 1.6 km/h
383 29-09-2019 07:50:00 14 C 10.37 g/m*3 14 C 1.6 km/h
384 29-09-2019 07:55:00 14.1 C 10.44 g/m*3 14.1 C 0 km/h
385 29-09-2019 08:00:00 14.3 C 10.44 g/m*3 14.3 C 6.4 km/h
386 29-09-2019 08:05:00 14.5 C 10.45 g/m*3 14.5 C 3.2 km/h
387 29-09-2019 08:10:00 14.6 C 10.39 g/m*3 14.6 C 6.4 km/h
388 29-09-2019 08:15:00 14.8 C 10.51 g/m*3 14.8 C 3.2 km/h
389 29-09-2019 08:20:00 14.9 C 10.71 g/m*3 14.9 C 6.4 km/h
390 29-09-2019 08:25:00 14.9 C 10.71 g/m*3 14.9 C 4.8 km/h
391 29-09-2019 08:30:00 15 C 10.64 g/m*3 15 C 0 km/h
392 29-09-2019 08:35:00 15 C 10.51 g/m*3 15 C 1.6 km/h
393 29-09-2019 08:40:00 15.2 C 10.77 g/m*3 15.2 C 6.4 km/h
394 29-09-2019 08:45:00 15.2 C 10.64 g/m*3 15.2 C 9.7 km/h
395 29-09-2019 08:50:00 15.4 C 10.64 g/m*3 15.4 C 9.7 km/h
396 29-09-2019 08:55:00 15.7 C 10.7 g/m*3 15.7 C 11.3 km/h
397 29-09-2019 09:00:00 15.9 C 10.83 g/m*3 15.9 C 6.4 km/h
398 29-09-2019 09:05:00 16.1 C 10.83 g/m*3 16.1 C 8.1 km/h
399 29-09-2019 09:10:00 16.3 C 10.82 g/m*3 16.3 C 11.3 km/h
400 29-09-2019 09:15:00 16.4 C 10.89 g/m*3 16.4 C 17.7 km/h
Sensor: Nr:Datum:Temp:Abs-Feuchte:Windchill:Wind:
Aussen-T/F 401 29-09-2019 09:20:00 16.6 C 10.88 g/m*3 16.6 C 17.7 km/h
402 29-09-2019 09:25:00 16.6 C 10.88 g/m*3 16.6 C 9.7 km/h
403 29-09-2019 09:30:00 16.6 C 10.74 g/m*3 16.6 C 14.5 km/h
404 29-09-2019 09:35:00 16.7 C 10.94 g/m*3 16.7 C 14.5 km/h
405 29-09-2019 09:40:00 16.7 C 10.8 g/m*3 16.7 C 12.9 km/h
406 29-09-2019 09:45:00 16.8 C 10.87 g/m*3 16.8 C 12.9 km/h
407 29-09-2019 09:50:00 16.8 C 10.72 g/m*3 16.8 C 16.1 km/h
408 29-09-2019 09:55:00 16.9 C 10.79 g/m*3 16.9 C 22.5 km/h
409 29-09-2019 10:00:00 17.1 C 10.92 g/m*3 17.1 C 19.3 km/h
410 29-09-2019 10:05:00 17.1 C 10.77 g/m*3 17.1 C 14.5 km/h
411 29-09-2019 10:10:00 17.2 C 10.84 g/m*3 17.2 C 19.3 km/h
412 29-09-2019 10:15:00 17.2 C 10.84 g/m*3 17.2 C 20.9 km/h
413 29-09-2019 10:20:00 17.2 C 10.84 g/m*3 17.2 C 20.9 km/h
414 29-09-2019 10:25:00 17.3 C 11.05 g/m*3 17.3 C 11.3 km/h
415 29-09-2019 10:30:00 17.4 C 10.97 g/m*3 17.4 C 30.6 km/h
416 29-09-2019 10:35:00 17.6 C 11.1 g/m*3 17.6 C 17.7 km/h
417 29-09-2019 10:40:00 17.8 C 11.08 g/m*3 17.8 C 24.1 km/h
418 29-09-2019 10:45:00 17.9 C 10.99 g/m*3 17.9 C 20.9 km/h
419 29-09-2019 10:50:00 17.9 C 10.99 g/m*3 17.9 C 16.1 km/h
420 29-09-2019 10:55:00 17.8 C 10.93 g/m*3 17.8 C 14.5 km/h
421 29-09-2019 11:00:00 17.7 C 11.01 g/m*3 17.7 C 16.1 km/h
422 29-09-2019 11:05:00 17.7 C 11.01 g/m*3 17.7 C 17.7 km/h
423 29-09-2019 11:10:00 17.6 C 10.95 g/m*3 17.6 C 20.9 km/h
424 29-09-2019 11:15:00 17.6 C 10.95 g/m*3 17.6 C 14.5 km/h
425 29-09-2019 11:20:00 17.5 C 10.88 g/m*3 17.5 C 17.7 km/h
Sensor: Nr:Datum:Temp:Abs-Feuchte:Windchill:Wind:
Aussen-T/F 426 29-09-2019 11:25:00 17.5 C 10.88 g/m*3 17.5 C 9.7 km/h
427 29-09-2019 11:30:00 17.5 C 10.88 g/m*3 17.5 C 16.1 km/h
428 29-09-2019 11:35:00 17.7 C 11.01 g/m*3 17.7 C 14.5 km/h
429 29-09-2019 11:40:00 17.8 C 11.08 g/m*3 17.8 C 29 km/h
430 29-09-2019 11:45:00 17.9 C 10.99 g/m*3 17.9 C 22.5 km/h
431 29-09-2019 11:50:00 18.1 C 11.12 g/m*3 18.1 C 11.3 km/h
432 29-09-2019 11:55:00 18.3 C 11.26 g/m*3 18.3 C 24.1 km/h
433 29-09-2019 12:00:00 18.4 C 11.17 g/m*3 18.4 C 19.3 km/h
434 29-09-2019 12:05:00 18.4 C 11.32 g/m*3 18.4 C 8.1 km/h
435 29-09-2019 12:10:00 18.4 C 11.32 g/m*3 18.4 C 14.5 km/h
436 29-09-2019 12:15:00 18.4 C 11.01 g/m*3 18.4 C 25.7 km/h
437 29-09-2019 12:20:00 18.5 C 11.08 g/m*3 18.5 C 17.7 km/h
438 29-09-2019 12:25:00 18.4 C 10.85 g/m*3 18.4 C 17.7 km/h
439 29-09-2019 12:30:00 18.3 C 10.94 g/m*3 18.3 C 19.3 km/h
440 29-09-2019 12:35:00 18.2 C 11.19 g/m*3 18.2 C 17.7 km/h
441 29-09-2019 12:40:00 18 C 11.52 g/m*3 18 C 17.7 km/h
442 29-09-2019 12:45:00 18 C 11.21 g/m*3 18 C 12.9 km/h
443 29-09-2019 12:50:00 18 C 11.37 g/m*3 18 C 16.1 km/h
444 29-09-2019 12:55:00 18.1 C 11.28 g/m*3 18.1 C 19.3 km/h
445 29-09-2019 13:00:00 18.2 C 11.19 g/m*3 18.2 C 12.9 km/h
446 29-09-2019 13:05:00 18.2 C 11.35 g/m*3 18.2 C 8.1 km/h
447 29-09-2019 13:10:00 18.2 C 11.04 g/m*3 18.2 C 12.9 km/h
448 29-09-2019 13:15:00 18.2 C 10.88 g/m*3 18.2 C 19.3 km/h
449 29-09-2019 13:20:00 18.1 C 10.82 g/m*3 18.1 C 11.3 km/h
450 29-09-2019 13:25:00 18.1 C 11.12 g/m*3 18.1 C 16.1 km/h
Sensor: Nr:Datum:Temp:Abs-Feuchte:Windchill:Wind:
Aussen-T/F 451 29-09-2019 13:30:00 18 C 11.21 g/m*3 18 C 11.3 km/h
452 29-09-2019 13:35:00 17.8 C 11.23 g/m*3 17.8 C 9.7 km/h
453 29-09-2019 13:40:00 17.9 C 11.3 g/m*3 17.9 C 9.7 km/h
454 29-09-2019 13:45:00 18 C 11.21 g/m*3 18 C 14.5 km/h
455 29-09-2019 13:50:00 18.2 C 11.35 g/m*3 18.2 C 12.9 km/h
456 29-09-2019 13:55:00 18.3 C 11.1 g/m*3 18.3 C 17.7 km/h
457 29-09-2019 14:00:00 18.4 C 10.85 g/m*3 18.4 C 12.9 km/h
458 29-09-2019 14:05:00 18.5 C 10.92 g/m*3 18.5 C 20.9 km/h
459 29-09-2019 14:10:00 18.6 C 10.82 g/m*3 18.6 C 25.7 km/h
460 29-09-2019 14:15:00 18.7 C 10.89 g/m*3 18.7 C 14.5 km/h
461 29-09-2019 14:20:00 18.9 C 10.85 g/m*3 18.9 C 12.9 km/h
462 29-09-2019 14:25:00 18.9 C 10.85 g/m*3 18.9 C 17.7 km/h
463 29-09-2019 14:30:00 18.9 C 10.85 g/m*3 18.9 C 19.3 km/h
464 29-09-2019 14:35:00 18.8 C 10.79 g/m*3 18.8 C 17.7 km/h
465 29-09-2019 14:40:00 18.7 C 11.05 g/m*3 18.7 C 12.9 km/h
466 29-09-2019 14:45:00 18.5 C 10.92 g/m*3 18.5 C 27.4 km/h
467 29-09-2019 14:50:00 18.3 C 10.94 g/m*3 18.3 C 37 km/h
468 29-09-2019 14:55:00 18.2 C 11.04 g/m*3 18.2 C 37 km/h
469 29-09-2019 15:00:00 18.1 C 11.12 g/m*3 18.1 C 20.9 km/h
470 29-09-2019 15:05:00 18.1 C 11.12 g/m*3 18.1 C 17.7 km/h
471 29-09-2019 15:10:00 17.9 C 11.15 g/m*3 17.9 C 17.7 km/h
472 29-09-2019 15:15:00 18.1 C 11.43 g/m*3 18.1 C 9.7 km/h
473 29-09-2019 15:20:00 18.2 C 11.35 g/m*3 18.2 C 14.5 km/h
474 29-09-2019 15:25:00 18.4 C 11.32 g/m*3 18.4 C 16.1 km/h
475 29-09-2019 15:30:00 18.5 C 11.55 g/m*3 18.5 C 14.5 km/h
Sensor: Nr:Datum:Temp:Abs-Feuchte:Windchill:Wind:
Aussen-T/F 476 29-09-2019 15:35:00 18.4 C 11.48 g/m*3 18.4 C 11.3 km/h
477 29-09-2019 15:40:00 18.3 C 11.41 g/m*3 18.3 C 16.1 km/h
478 29-09-2019 15:45:00 18.2 C 11.5 g/m*3 18.2 C 24.1 km/h
479 29-09-2019 15:50:00 18.2 C 11.5 g/m*3 18.2 C 29 km/h
480 29-09-2019 15:55:00 18.2 C 11.66 g/m*3 18.2 C 17.7 km/h
481 29-09-2019 16:00:00 18.1 C 11.9 g/m*3 18.1 C 9.7 km/h
482 29-09-2019 16:05:00 17.7 C 11.92 g/m*3 17.7 C 17.7 km/h
483 29-09-2019 16:10:00 17.3 C 11.93 g/m*3 17.3 C 11.3 km/h
484 29-09-2019 16:15:00 17.2 C 12.01 g/m*3 17.2 C 17.7 km/h
485 29-09-2019 16:20:00 17.1 C 11.94 g/m*3 17.1 C 11.3 km/h
486 29-09-2019 16:25:00 17 C 11.87 g/m*3 17 C 12.9 km/h
487 29-09-2019 16:30:00 16.9 C 11.94 g/m*3 16.9 C 12.9 km/h
488 29-09-2019 16:35:00 16.9 C 11.94 g/m*3 16.9 C 17.7 km/h
489 29-09-2019 16:40:00 16.8 C 11.87 g/m*3 16.8 C 16.1 km/h
490 29-09-2019 16:45:00 16.8 C 11.87 g/m*3 16.8 C 6.4 km/h
491 29-09-2019 16:50:00 16.8 C 11.87 g/m*3 16.8 C 12.9 km/h
492 29-09-2019 16:55:00 16.7 C 11.8 g/m*3 16.7 C 9.7 km/h
493 29-09-2019 17:00:00 16.7 C 11.8 g/m*3 16.7 C 14.5 km/h
494 29-09-2019 17:05:00 16.8 C 11.87 g/m*3 16.8 C 16.1 km/h
495 29-09-2019 17:10:00 16.8 C 11.87 g/m*3 16.8 C 11.3 km/h
496 29-09-2019 17:15:00 16.8 C 11.87 g/m*3 16.8 C 6.4 km/h
497 29-09-2019 17:20:00 16.8 C 11.87 g/m*3 16.8 C 8.1 km/h
498 29-09-2019 17:25:00 16.9 C 11.94 g/m*3 16.9 C 9.7 km/h
499 29-09-2019 17:30:00 17 C 11.87 g/m*3 17 C 12.9 km/h
500 29-09-2019 17:35:00 17.1 C 11.94 g/m*3 17.1 C 16.1 km/h
Sensor: Nr:Datum:Temp:Abs-Feuchte:Windchill:Wind:
Aussen-T/F 501 29-09-2019 17:40:00 17.2 C 12.01 g/m*3 17.2 C 14.5 km/h
502 29-09-2019 17:45:00 17.2 C 12.01 g/m*3 17.2 C 11.3 km/h
503 29-09-2019 17:50:00 17.3 C 12.08 g/m*3 17.3 C 16.1 km/h
504 29-09-2019 17:55:00 17.4 C 12 g/m*3 17.4 C 11.3 km/h
505 29-09-2019 18:00:00 17.6 C 12.15 g/m*3 17.6 C 12.9 km/h
506 29-09-2019 18:05:00 17.6 C 12.15 g/m*3 17.6 C 14.5 km/h
507 29-09-2019 18:10:00 17.6 C 12.15 g/m*3 17.6 C 16.1 km/h
508 29-09-2019 18:15:00 17.6 C 12.15 g/m*3 17.6 C 9.7 km/h
509 29-09-2019 18:20:00 17.6 C 12.3 g/m*3 17.6 C 12.9 km/h
510 29-09-2019 18:25:00 17.6 C 12.3 g/m*3 17.6 C 11.3 km/h
511 29-09-2019 18:30:00 17.6 C 12.45 g/m*3 17.6 C 9.7 km/h
512 29-09-2019 18:35:00 17.5 C 12.52 g/m*3 17.5 C 8.1 km/h
513 29-09-2019 18:40:00 17.4 C 12.6 g/m*3 17.4 C 11.3 km/h
514 29-09-2019 18:45:00 17.3 C 12.52 g/m*3 17.3 C 16.1 km/h
515 29-09-2019 18:50:00 17.3 C 12.52 g/m*3 17.3 C 9.7 km/h
516 29-09-2019 18:55:00 17.3 C 12.52 g/m*3 17.3 C 12.9 km/h
517 29-09-2019 19:00:00 17.4 C 12.6 g/m*3 17.4 C 9.7 km/h
518 29-09-2019 19:05:00 17.4 C 12.45 g/m*3 17.4 C 20.9 km/h
519 29-09-2019 19:10:00 17.4 C 12.45 g/m*3 17.4 C 12.9 km/h
520 29-09-2019 19:15:00 17.5 C 12.52 g/m*3 17.5 C 16.1 km/h
521 29-09-2019 19:20:00 17.6 C 12.6 g/m*3 17.6 C 22.5 km/h
522 29-09-2019 19:25:00 17.7 C 12.52 g/m*3 17.7 C 19.3 km/h
523 29-09-2019 19:30:00 17.8 C 12.45 g/m*3 17.8 C 16.1 km/h
524 29-09-2019 19:35:00 17.9 C 12.52 g/m*3 17.9 C 16.1 km/h
525 29-09-2019 19:40:00 17.9 C 12.52 g/m*3 17.9 C 14.5 km/h
Sensor: Nr:Datum:Temp:Abs-Feuchte:Windchill:Wind:
Aussen-T/F 526 29-09-2019 19:45:00 17.9 C 12.52 g/m*3 17.9 C 9.7 km/h
527 29-09-2019 19:50:00 18 C 12.59 g/m*3 18 C 16.1 km/h
528 29-09-2019 19:55:00 18 C 12.75 g/m*3 18 C 12.9 km/h
529 29-09-2019 20:00:00 17.9 C 12.83 g/m*3 17.9 C 20.9 km/h
530 29-09-2019 20:05:00 17.7 C 12.82 g/m*3 17.7 C 4.8 km/h
531 29-09-2019 20:10:00 17.5 C 12.82 g/m*3 17.5 C 8.1 km/h
532 29-09-2019 20:15:00 17.4 C 12.89 g/m*3 17.4 C 3.2 km/h
533 29-09-2019 20:20:00 17.3 C 12.96 g/m*3 17.3 C 1.6 km/h
534 29-09-2019 20:25:00 17.2 C 12.89 g/m*3 17.2 C 0 km/h
535 29-09-2019 20:30:00 17.1 C 12.96 g/m*3 17.1 C 3.2 km/h
536 29-09-2019 20:35:00 17 C 12.88 g/m*3 17 C 3.2 km/h
537 29-09-2019 20:40:00 17 C 13.02 g/m*3 17 C 11.3 km/h
538 29-09-2019 20:45:00 17 C 13.02 g/m*3 17 C 4.8 km/h
539 29-09-2019 20:50:00 17.1 C 13.1 g/m*3 17.1 C 8.1 km/h
540 29-09-2019 20:55:00 17.1 C 13.25 g/m*3 17.1 C 1.6 km/h
541 29-09-2019 21:00:00 17 C 13.17 g/m*3 17 C 4.8 km/h
542 29-09-2019 21:05:00 16.9 C 13.09 g/m*3 16.9 C 1.6 km/h
543 29-09-2019 21:10:00 16.9 C 13.23 g/m*3 16.9 C 1.6 km/h
544 29-09-2019 21:15:00 16.8 C 13.15 g/m*3 16.8 C 9.7 km/h
545 29-09-2019 21:20:00 16.8 C 13.15 g/m*3 16.8 C 12.9 km/h
546 29-09-2019 21:25:00 16.8 C 13.15 g/m*3 16.8 C 3.2 km/h
547 29-09-2019 21:30:00 16.8 C 13.15 g/m*3 16.8 C 0 km/h
548 29-09-2019 21:35:00 16.7 C 13.07 g/m*3 16.7 C 3.2 km/h
549 29-09-2019 21:40:00 16.7 C 13.22 g/m*3 16.7 C 3.2 km/h
550 29-09-2019 21:45:00 16.7 C 13.22 g/m*3 16.7 C 12.9 km/h
Sensor: Nr:Datum:Temp:Abs-Feuchte:Windchill:Wind:
Aussen-T/F 551 29-09-2019 21:50:00 16.7 C 13.22 g/m*3 16.7 C 8.1 km/h
552 29-09-2019 21:55:00 16.7 C 13.22 g/m*3 16.7 C 6.4 km/h
553 29-09-2019 22:00:00 16.8 C 13.15 g/m*3 16.8 C 8.1 km/h
554 29-09-2019 22:05:00 16.8 C 13.15 g/m*3 16.8 C 14.5 km/h
555 29-09-2019 22:10:00 16.8 C 13.15 g/m*3 16.8 C 11.3 km/h
556 29-09-2019 22:15:00 16.9 C 13.23 g/m*3 16.9 C 4.8 km/h
557 29-09-2019 22:20:00 16.9 C 13.23 g/m*3 16.9 C 11.3 km/h
558 29-09-2019 22:25:00 17 C 13.31 g/m*3 17 C 12.9 km/h
559 29-09-2019 22:30:00 17.1 C 13.39 g/m*3 17.1 C 17.7 km/h
560 29-09-2019 22:35:00 17.1 C 13.39 g/m*3 17.1 C 8.1 km/h
561 29-09-2019 22:40:00 17 C 13.46 g/m*3 17 C 14.5 km/h
562 29-09-2019 22:45:00 16.9 C 13.38 g/m*3 16.9 C 6.4 km/h
563 29-09-2019 22:50:00 16.9 C 13.38 g/m*3 16.9 C 16.1 km/h
564 29-09-2019 22:55:00 16.8 C 13.3 g/m*3 16.8 C 19.3 km/h
565 29-09-2019 23:00:00 16.8 C 13.3 g/m*3 16.8 C 12.9 km/h
566 29-09-2019 23:05:00 16.8 C 13.3 g/m*3 16.8 C 16.1 km/h
567 29-09-2019 23:10:00 16.8 C 13.3 g/m*3 16.8 C 16.1 km/h
568 29-09-2019 23:15:00 16.8 C 13.3 g/m*3 16.8 C 12.9 km/h
569 29-09-2019 23:20:00 16.9 C 13.38 g/m*3 16.9 C 12.9 km/h
570 29-09-2019 23:25:00 16.9 C 13.23 g/m*3 16.9 C 25.7 km/h
571 29-09-2019 23:30:00 16.7 C 12.93 g/m*3 16.7 C 14.5 km/h
572 29-09-2019 23:35:00 16.6 C 12.86 g/m*3 16.6 C 14.5 km/h
573 29-09-2019 23:40:00 16.5 C 12.78 g/m*3 16.5 C 11.3 km/h
574 29-09-2019 23:45:00 16.3 C 12.62 g/m*3 16.3 C 4.8 km/h
575 29-09-2019 23:50:00 16.2 C 12.55 g/m*3 16.2 C 14.5 km/h
Sensor: Nr:Datum:Temp:Abs-Feuchte:Windchill:Wind:
Aussen-T/F 576 29-09-2019 23:55:00 16.1 C 12.47 g/m*3 16.1 C 17.7 km/h
577 30-09-2019 00:00:00 16 C 12.4 g/m*3 16 C 3.2 km/h
578 30-09-2019 00:05:00 15.8 C 12.25 g/m*3 15.8 C 11.3 km/h
579 30-09-2019 00:10:00 15.6 C 11.84 g/m*3 15.6 C 14.5 km/h
580 30-09-2019 00:15:00 15.4 C 11.69 g/m*3 15.4 C 19.3 km/h
581 30-09-2019 00:20:00 15.4 C 11.56 g/m*3 15.4 C 19.3 km/h
582 30-09-2019 00:25:00 15.5 C 11.63 g/m*3 15.5 C 27.4 km/h
583 30-09-2019 00:30:00 15.7 C 11.51 g/m*3 15.7 C 27.4 km/h
584 30-09-2019 00:35:00 15.8 C 11.58 g/m*3 15.8 C 16.1 km/h
585 30-09-2019 00:40:00 15.7 C 11.51 g/m*3 15.7 C 14.5 km/h
586 30-09-2019 00:45:00 15.7 C 11.37 g/m*3 15.7 C 27.4 km/h
587 30-09-2019 00:50:00 15.6 C 11.3 g/m*3 15.6 C 14.5 km/h
588 30-09-2019 00:55:00 15.6 C 11.3 g/m*3 15.6 C 22.5 km/h
589 30-09-2019 01:00:00 15.6 C 11.3 g/m*3 15.6 C 22.5 km/h
590 30-09-2019 01:05:00 15.6 C 11.3 g/m*3 15.6 C 16.1 km/h
591 30-09-2019 01:10:00 15.5 C 11.37 g/m*3 15.5 C 25.7 km/h
592 30-09-2019 01:15:00 15.4 C 11.3 g/m*3 15.4 C 14.5 km/h
593 30-09-2019 01:20:00 15.4 C 11.3 g/m*3 15.4 C 17.7 km/h
594 30-09-2019 01:25:00 15.5 C 11.37 g/m*3 15.5 C 20.9 km/h
595 30-09-2019 01:30:00 15.4 C 11.17 g/m*3 15.4 C 14.5 km/h
596 30-09-2019 01:35:00 15.3 C 11.23 g/m*3 15.3 C 19.3 km/h
597 30-09-2019 01:40:00 15.3 C 11.23 g/m*3 15.3 C 22.5 km/h
598 30-09-2019 01:45:00 15.2 C 11.29 g/m*3 15.2 C 4.8 km/h
599 30-09-2019 01:50:00 15 C 11.16 g/m*3 15 C 24.1 km/h
600 30-09-2019 01:55:00 14.9 C 11.22 g/m*3 14.9 C 16.1 km/h
Sensor: Nr:Datum:Temp:Abs-Feuchte:Windchill:Wind:
Aussen-T/F 601 30-09-2019 02:00:00 14.9 C 11.09 g/m*3 14.9 C 19.3 km/h
602 30-09-2019 02:05:00 14.9 C 11.09 g/m*3 14.9 C 11.3 km/h
603 30-09-2019 02:10:00 15.1 C 11.22 g/m*3 15.1 C 25.7 km/h
604 30-09-2019 02:15:00 15.1 C 11.22 g/m*3 15.1 C 11.3 km/h
605 30-09-2019 02:20:00 15.1 C 11.22 g/m*3 15.1 C 16.1 km/h
606 30-09-2019 02:25:00 15.2 C 11.16 g/m*3 15.2 C 11.3 km/h
607 30-09-2019 02:30:00 15.3 C 11.23 g/m*3 15.3 C 22.5 km/h
608 30-09-2019 02:35:00 15.3 C 11.23 g/m*3 15.3 C 16.1 km/h
609 30-09-2019 02:40:00 15.3 C 11.23 g/m*3 15.3 C 19.3 km/h
610 30-09-2019 02:45:00 15.3 C 11.23 g/m*3 15.3 C 16.1 km/h
611 30-09-2019 02:50:00 15.2 C 11.16 g/m*3 15.2 C 17.7 km/h
612 30-09-2019 02:55:00 15.2 C 11.29 g/m*3 15.2 C 17.7 km/h
613 30-09-2019 03:00:00 15.2 C 11.29 g/m*3 15.2 C 14.5 km/h
614 30-09-2019 03:05:00 15.1 C 11.22 g/m*3 15.1 C 16.1 km/h
615 30-09-2019 03:10:00 15.2 C 11.29 g/m*3 15.2 C 24.1 km/h
616 30-09-2019 03:15:00 15.2 C 11.29 g/m*3 15.2 C 11.3 km/h
617 30-09-2019 03:20:00 15.2 C 11.16 g/m*3 15.2 C 17.7 km/h
618 30-09-2019 03:25:00 15.3 C 11.23 g/m*3 15.3 C 14.5 km/h
619 30-09-2019 03:30:00 15.4 C 11.3 g/m*3 15.4 C 14.5 km/h
620 30-09-2019 03:35:00 15.4 C 11.3 g/m*3 15.4 C 16.1 km/h
621 30-09-2019 03:40:00 15.4 C 11.43 g/m*3 15.4 C 12.9 km/h
622 30-09-2019 03:45:00 15.4 C 11.43 g/m*3 15.4 C 11.3 km/h
623 30-09-2019 03:50:00 15.2 C 11.42 g/m*3 15.2 C 12.9 km/h
624 30-09-2019 03:55:00 15.1 C 11.35 g/m*3 15.1 C 17.7 km/h
625 30-09-2019 04:00:00 15.1 C 11.35 g/m*3 15.1 C 12.9 km/h
Sensor: Nr:Datum:Temp:Abs-Feuchte:Windchill:Wind:
Aussen-T/F 626 30-09-2019 04:05:00 15.1 C 11.35 g/m*3 15.1 C 16.1 km/h
627 30-09-2019 04:10:00 15.1 C 11.35 g/m*3 15.1 C 8.1 km/h
628 30-09-2019 04:15:00 15.2 C 11.42 g/m*3 15.2 C 12.9 km/h
629 30-09-2019 04:20:00 15.3 C 11.36 g/m*3 15.3 C 14.5 km/h
630 30-09-2019 04:25:00 15.3 C 11.36 g/m*3 15.3 C 6.4 km/h
631 30-09-2019 04:30:00 15.3 C 11.36 g/m*3 15.3 C 11.3 km/h
632 30-09-2019 04:35:00 15.2 C 11.42 g/m*3 15.2 C 14.5 km/h
633 30-09-2019 04:40:00 15 C 11.41 g/m*3 15 C 8.1 km/h
634 30-09-2019 04:45:00 14.8 C 11.4 g/m*3 14.8 C 6.4 km/h
635 30-09-2019 04:50:00 14.7 C 11.46 g/m*3 14.7 C 16.1 km/h
636 30-09-2019 04:55:00 14.4 C 11.25 g/m*3 14.4 C 16.1 km/h
637 30-09-2019 05:00:00 14.1 C 11.04 g/m*3 14.1 C 17.7 km/h
638 30-09-2019 05:05:00 13.9 C 11.03 g/m*3 13.9 C 16.1 km/h
639 30-09-2019 05:10:00 13.8 C 10.96 g/m*3 13.8 C 17.7 km/h
640 30-09-2019 05:15:00 13.8 C 10.96 g/m*3 13.8 C 12.9 km/h
641 30-09-2019 05:20:00 13.8 C 10.96 g/m*3 13.8 C 12.9 km/h
642 30-09-2019 05:25:00 13.8 C 10.96 g/m*3 13.8 C 6.4 km/h
643 30-09-2019 05:30:00 13.8 C 10.96 g/m*3 13.8 C 3.2 km/h
644 30-09-2019 05:35:00 13.7 C 10.89 g/m*3 13.7 C 12.9 km/h
645 30-09-2019 05:40:00 13.7 C 10.89 g/m*3 13.7 C 11.3 km/h
646 30-09-2019 05:45:00 13.6 C 10.95 g/m*3 13.6 C 0 km/h
647 30-09-2019 05:50:00 13.6 C 10.95 g/m*3 13.6 C 4.8 km/h
648 30-09-2019 05:55:00 13.5 C 10.88 g/m*3 13.5 C 3.2 km/h
649 30-09-2019 06:00:00 13.4 C 10.81 g/m*3 13.4 C 0 km/h
650 30-09-2019 06:05:00 13.4 C 10.81 g/m*3 13.4 C 6.4 km/h
Sensor: Nr:Datum:Temp:Abs-Feuchte:Windchill:Wind:
Aussen-T/F 651 30-09-2019 06:10:00 13.3 C 10.74 g/m*3 13.3 C 8.1 km/h
652 30-09-2019 06:15:00 13.3 C 10.74 g/m*3 13.3 C 4.8 km/h
653 30-09-2019 06:20:00 13.2 C 10.68 g/m*3 13.2 C 11.3 km/h
654 30-09-2019 06:25:00 13.2 C 10.68 g/m*3 13.2 C 12.9 km/h
655 30-09-2019 06:30:00 13.2 C 10.68 g/m*3 13.2 C 9.7 km/h
656 30-09-2019 06:35:00 13.1 C 10.61 g/m*3 13.1 C 17.7 km/h
657 30-09-2019 06:40:00 13.1 C 10.61 g/m*3 13.1 C 6.4 km/h
658 30-09-2019 06:45:00 13 C 10.55 g/m*3 13 C 14.5 km/h
659 30-09-2019 06:50:00 13 C 10.43 g/m*3 13 C 14.5 km/h
660 30-09-2019 06:55:00 13.1 C 10.5 g/m*3 13.1 C 12.9 km/h
661 30-09-2019 07:00:00 13.1 C 10.5 g/m*3 13.1 C 11.3 km/h
662 30-09-2019 07:05:00 13.1 C 10.5 g/m*3 13.1 C 6.4 km/h
663 30-09-2019 07:10:00 13 C 10.43 g/m*3 13 C 11.3 km/h
664 30-09-2019 07:15:00 13 C 10.32 g/m*3 13 C 11.3 km/h
665 30-09-2019 07:20:00 13.1 C 10.38 g/m*3 13.1 C 14.5 km/h
666 30-09-2019 07:25:00 13.1 C 10.27 g/m*3 13.1 C 9.7 km/h
667 30-09-2019 07:30:00 13.1 C 10.27 g/m*3 13.1 C 9.7 km/h
668 30-09-2019 07:35:00 13.1 C 10.27 g/m*3 13.1 C 11.3 km/h
669 30-09-2019 07:40:00 13.1 C 10.27 g/m*3 13.1 C 11.3 km/h
670 30-09-2019 07:45:00 13.1 C 10.27 g/m*3 13.1 C 9.7 km/h
671 30-09-2019 07:50:00 13.1 C 10.27 g/m*3 13.1 C 6.4 km/h
672 30-09-2019 07:55:00 13.1 C 10.27 g/m*3 13.1 C 8.1 km/h
673 30-09-2019 08:00:00 13.1 C 10.27 g/m*3 13.1 C 11.3 km/h
674 30-09-2019 08:05:00 13.1 C 10.04 g/m*3 13.1 C 12.9 km/h
675 30-09-2019 08:10:00 13.2 C 10.1 g/m*3 13.2 C 17.7 km/h
Sensor: Nr:Datum:Temp:Abs-Feuchte:Windchill:Wind:
Aussen-T/F 676 30-09-2019 08:15:00 13.2 C 10.1 g/m*3 13.2 C 14.5 km/h
677 30-09-2019 08:20:00 13.3 C 10.05 g/m*3 13.3 C 11.3 km/h
678 30-09-2019 08:25:00 13.3 C 10.05 g/m*3 13.3 C 9.7 km/h
679 30-09-2019 08:30:00 13.3 C 10.17 g/m*3 13.3 C 8.1 km/h
680 30-09-2019 08:35:00 13.3 C 10.05 g/m*3 13.3 C 9.7 km/h
681 30-09-2019 08:40:00 13.3 C 10.05 g/m*3 13.3 C 11.3 km/h
682 30-09-2019 08:45:00 13.4 C 10 g/m*3 13.4 C 9.7 km/h
683 30-09-2019 08:50:00 13.4 C 9.88 g/m*3 13.4 C 17.7 km/h
684 30-09-2019 08:55:00 13.6 C 10 g/m*3 13.6 C 11.3 km/h
685 30-09-2019 09:00:00 13.7 C 10.07 g/m*3 13.7 C 12.9 km/h
686 30-09-2019 09:05:00 13.7 C 10.07 g/m*3 13.7 C 9.7 km/h
687 30-09-2019 09:10:00 13.7 C 9.95 g/m*3 13.7 C 9.7 km/h
688 30-09-2019 09:15:00 13.8 C 10.01 g/m*3 13.8 C 11.3 km/h
689 30-09-2019 09:20:00 13.9 C 9.95 g/m*3 13.9 C 14.5 km/h
690 30-09-2019 09:25:00 13.9 C 10.07 g/m*3 13.9 C 8.1 km/h
691 30-09-2019 09:30:00 13.9 C 9.95 g/m*3 13.9 C 16.1 km/h
692 30-09-2019 09:35:00 14 C 10.01 g/m*3 14 C 16.1 km/h
693 30-09-2019 09:40:00 14.1 C 9.95 g/m*3 14.1 C 17.7 km/h
694 30-09-2019 09:45:00 14.2 C 10.01 g/m*3 14.2 C 11.3 km/h
695 30-09-2019 09:50:00 14.2 C 9.89 g/m*3 14.2 C 16.1 km/h
696 30-09-2019 09:55:00 14.2 C 10.01 g/m*3 14.2 C 16.1 km/h
697 30-09-2019 10:00:00 14.3 C 10.2 g/m*3 14.3 C 12.9 km/h
698 30-09-2019 10:05:00 14.3 C 10.07 g/m*3 14.3 C 14.5 km/h
699 30-09-2019 10:10:00 14.3 C 9.95 g/m*3 14.3 C 17.7 km/h
700 30-09-2019 10:15:00 14.3 C 10.07 g/m*3 14.3 C 11.3 km/h
Sensor: Nr:Datum:Temp:Abs-Feuchte:Windchill:Wind:
Aussen-T/F 701 30-09-2019 10:20:00 14.3 C 9.95 g/m*3 14.3 C 16.1 km/h
702 30-09-2019 10:25:00 14.3 C 10.07 g/m*3 14.3 C 9.7 km/h
703 30-09-2019 10:30:00 14.3 C 10.07 g/m*3 14.3 C 11.3 km/h
704 30-09-2019 10:35:00 14.4 C 10.14 g/m*3 14.4 C 12.9 km/h
705 30-09-2019 10:40:00 14.6 C 10.14 g/m*3 14.6 C 14.5 km/h
706 30-09-2019 10:45:00 14.7 C 10.2 g/m*3 14.7 C 19.3 km/h
707 30-09-2019 10:50:00 14.8 C 10.01 g/m*3 14.8 C 19.3 km/h
708 30-09-2019 10:55:00 14.8 C 10.13 g/m*3 14.8 C 14.5 km/h
709 30-09-2019 11:00:00 14.9 C 10.2 g/m*3 14.9 C 11.3 km/h
710 30-09-2019 11:05:00 14.9 C 10.07 g/m*3 14.9 C 14.5 km/h
711 30-09-2019 11:10:00 14.9 C 10.07 g/m*3 14.9 C 16.1 km/h
712 30-09-2019 11:15:00 15 C 10.26 g/m*3 15 C 14.5 km/h
713 30-09-2019 11:20:00 15.1 C 10.32 g/m*3 15.1 C 9.7 km/h
714 30-09-2019 11:25:00 15.1 C 10.19 g/m*3 15.1 C 11.3 km/h
715 30-09-2019 11:30:00 15.1 C 10.19 g/m*3 15.1 C 11.3 km/h
716 30-09-2019 11:35:00 15.1 C 10.19 g/m*3 15.1 C 14.5 km/h
717 30-09-2019 11:40:00 15.3 C 10.06 g/m*3 15.3 C 20.9 km/h
718 30-09-2019 11:45:00 15.4 C 9.99 g/m*3 15.4 C 25.7 km/h
719 30-09-2019 11:50:00 15.4 C 9.85 g/m*3 15.4 C 17.7 km/h
720 30-09-2019 11:55:00 15.4 C 9.72 g/m*3 15.4 C 14.5 km/h
721 30-09-2019 12:00:00 15.4 C 9.72 g/m*3 15.4 C 17.7 km/h
722 30-09-2019 12:05:00 15.4 C 9.72 g/m*3 15.4 C 19.3 km/h
723 30-09-2019 12:10:00 15.5 C 9.91 g/m*3 15.5 C 14.5 km/h
724 30-09-2019 12:15:00 15.6 C 9.97 g/m*3 15.6 C 22.5 km/h
725 30-09-2019 12:20:00 15.6 C 9.84 g/m*3 15.6 C 20.9 km/h
Sensor: Nr:Datum:Temp:Abs-Feuchte:Windchill:Wind:
Aussen-T/F 726 30-09-2019 12:25:00 15.7 C 9.9 g/m*3 15.7 C 16.1 km/h
727 30-09-2019 12:30:00 15.7 C 9.77 g/m*3 15.7 C 14.5 km/h
728 30-09-2019 12:35:00 15.8 C 9.83 g/m*3 15.8 C 17.7 km/h
729 30-09-2019 12:40:00 15.9 C 9.62 g/m*3 15.9 C 17.7 km/h
730 30-09-2019 12:45:00 15.9 C 9.89 g/m*3 15.9 C 12.9 km/h
731 30-09-2019 12:50:00 16 C 9.81 g/m*3 16 C 11.3 km/h
732 30-09-2019 12:55:00 16.1 C 9.73 g/m*3 16.1 C 16.1 km/h
733 30-09-2019 13:00:00 16.1 C 10.01 g/m*3 16.1 C 12.9 km/h
734 30-09-2019 13:05:00 16.1 C 9.73 g/m*3 16.1 C 14.5 km/h
735 30-09-2019 13:10:00 16.1 C 9.87 g/m*3 16.1 C 12.9 km/h
736 30-09-2019 13:15:00 16.1 C 9.6 g/m*3 16.1 C 17.7 km/h
737 30-09-2019 13:20:00 16.2 C 9.79 g/m*3 16.2 C 12.9 km/h
738 30-09-2019 13:25:00 16.3 C 9.43 g/m*3 16.3 C 16.1 km/h
739 30-09-2019 13:30:00 16.4 C 9.63 g/m*3 16.4 C 24.1 km/h
740 30-09-2019 13:35:00 16.6 C 9.61 g/m*3 16.6 C 14.5 km/h
741 30-09-2019 13:40:00 16.8 C 9.72 g/m*3 16.8 C 16.1 km/h
742 30-09-2019 13:45:00 16.8 C 9.58 g/m*3 16.8 C 19.3 km/h
743 30-09-2019 13:50:00 16.7 C 9.66 g/m*3 16.7 C 14.5 km/h
744 30-09-2019 13:55:00 16.7 C 9.52 g/m*3 16.7 C 11.3 km/h
745 30-09-2019 14:00:00 16.8 C 9.58 g/m*3 16.8 C 12.9 km/h
746 30-09-2019 14:05:00 16.8 C 9.58 g/m*3 16.8 C 16.1 km/h
747 30-09-2019 14:10:00 16.9 C 9.49 g/m*3 16.9 C 12.9 km/h
748 30-09-2019 14:15:00 16.9 C 9.64 g/m*3 16.9 C 8.1 km/h
749 30-09-2019 14:20:00 16.9 C 9.64 g/m*3 16.9 C 12.9 km/h
750 30-09-2019 14:25:00 17.1 C 9.75 g/m*3 17.1 C 11.3 km/h
Sensor: Nr:Datum:Temp:Abs-Feuchte:Windchill:Wind:
Aussen-T/F 751 30-09-2019 14:30:00 17.1 C 9.75 g/m*3 17.1 C 16.1 km/h
752 30-09-2019 14:35:00 17.2 C 9.81 g/m*3 17.2 C 14.5 km/h
753 30-09-2019 14:40:00 17.3 C 10.02 g/m*3 17.3 C 12.9 km/h
754 30-09-2019 14:45:00 17.3 C 9.87 g/m*3 17.3 C 17.7 km/h
755 30-09-2019 14:50:00 17.4 C 9.78 g/m*3 17.4 C 17.7 km/h
756 30-09-2019 14:55:00 17.6 C 9.6 g/m*3 17.6 C 17.7 km/h
757 30-09-2019 15:00:00 17.7 C 9.96 g/m*3 17.7 C 14.5 km/h
758 30-09-2019 15:05:00 17.8 C 9.87 g/m*3 17.8 C 16.1 km/h
759 30-09-2019 15:10:00 17.7 C 9.51 g/m*3 17.7 C 19.3 km/h
760 30-09-2019 15:15:00 17.7 C 9.66 g/m*3 17.7 C 11.3 km/h
761 30-09-2019 15:20:00 17.6 C 9.6 g/m*3 17.6 C 11.3 km/h
762 30-09-2019 15:25:00 17.7 C 9.96 g/m*3 17.7 C 16.1 km/h
763 30-09-2019 15:30:00 17.8 C 10.02 g/m*3 17.8 C 16.1 km/h
764 30-09-2019 15:35:00 17.8 C 9.71 g/m*3 17.8 C 17.7 km/h
765 30-09-2019 15:40:00 17.8 C 10.17 g/m*3 17.8 C 11.3 km/h
766 30-09-2019 15:45:00 17.8 C 9.87 g/m*3 17.8 C 12.9 km/h
767 30-09-2019 15:50:00 17.8 C 9.71 g/m*3 17.8 C 12.9 km/h
768 30-09-2019 15:55:00 17.9 C 9.92 g/m*3 17.9 C 16.1 km/h
769 30-09-2019 16:00:00 18.1 C 10.04 g/m*3 18.1 C 14.5 km/h
770 30-09-2019 16:05:00 18.2 C 9.95 g/m*3 18.2 C 12.9 km/h
771 30-09-2019 16:10:00 18.2 C 9.79 g/m*3 18.2 C 16.1 km/h
772 30-09-2019 16:15:00 18.3 C 9.85 g/m*3 18.3 C 11.3 km/h
773 30-09-2019 16:20:00 18.4 C 9.91 g/m*3 18.4 C 14.5 km/h
774 30-09-2019 16:25:00 18.7 C 10.25 g/m*3 18.7 C 12.9 km/h
775 30-09-2019 16:30:00 18.7 C 9.93 g/m*3 18.7 C 14.5 km/h
Sensor: Nr:Datum:Temp:Abs-Feuchte:Windchill:Wind:
Aussen-T/F 776 30-09-2019 16:35:00 18.6 C 9.71 g/m*3 18.6 C 17.7 km/h
777 30-09-2019 16:40:00 18.4 C 9.44 g/m*3 18.4 C 12.9 km/h
778 30-09-2019 16:45:00 18.4 C 9.75 g/m*3 18.4 C 12.9 km/h
779 30-09-2019 16:50:00 18.7 C 9.77 g/m*3 18.7 C 17.7 km/h
780 30-09-2019 16:55:00 18.8 C 9.82 g/m*3 18.8 C 14.5 km/h
781 30-09-2019 17:00:00 19 C 9.78 g/m*3 19 C 14.5 km/h
782 30-09-2019 17:05:00 18.8 C 9.5 g/m*3 18.8 C 12.9 km/h
783 30-09-2019 17:10:00 18.6 C 9.39 g/m*3 18.6 C 9.7 km/h
784 30-09-2019 17:15:00 18.4 C 9.28 g/m*3 18.4 C 19.3 km/h
785 30-09-2019 17:20:00 18.3 C 9.22 g/m*3 18.3 C 17.7 km/h
786 30-09-2019 17:25:00 18.4 C 9.28 g/m*3 18.4 C 11.3 km/h
787 30-09-2019 17:30:00 18.3 C 9.54 g/m*3 18.3 C 9.7 km/h
788 30-09-2019 17:35:00 18.2 C 9.64 g/m*3 18.2 C 9.7 km/h
789 30-09-2019 17:40:00 18.2 C 9.79 g/m*3 18.2 C 8.1 km/h
790 30-09-2019 17:45:00 18.4 C 9.59 g/m*3 18.4 C 12.9 km/h
791 30-09-2019 17:50:00 18.4 C 9.91 g/m*3 18.4 C 9.7 km/h
792 30-09-2019 17:55:00 18.4 C 9.59 g/m*3 18.4 C 9.7 km/h
793 30-09-2019 18:00:00 18.4 C 10.22 g/m*3 18.4 C 6.4 km/h
794 30-09-2019 18:05:00 18.4 C 10.07 g/m*3 18.4 C 4.8 km/h
795 30-09-2019 18:10:00 18.4 C 10.07 g/m*3 18.4 C 4.8 km/h
796 30-09-2019 18:15:00 18.4 C 10.07 g/m*3 18.4 C 11.3 km/h
797 30-09-2019 18:20:00 18.3 C 10.16 g/m*3 18.3 C 6.4 km/h
798 30-09-2019 18:25:00 18.1 C 10.04 g/m*3 18.1 C 4.8 km/h
799 30-09-2019 18:30:00 17.8 C 10.32 g/m*3 17.8 C 1.6 km/h
800 30-09-2019 18:35:00 17.6 C 10.35 g/m*3 17.6 C 0 km/h
Sensor: Nr:Datum:Temp:Abs-Feuchte:Windchill:Wind:
Aussen-T/F 801 30-09-2019 18:40:00 17.3 C 10.46 g/m*3 17.3 C 0 km/h
802 30-09-2019 18:45:00 16.9 C 10.36 g/m*3 16.9 C 0 km/h
803 30-09-2019 18:50:00 16.5 C 10.25 g/m*3 16.5 C 0 km/h
804 30-09-2019 18:55:00 16.2 C 10.34 g/m*3 16.2 C 0 km/h
805 30-09-2019 19:00:00 15.8 C 10.23 g/m*3 15.8 C 0 km/h
806 30-09-2019 19:05:00 15.5 C 10.18 g/m*3 15.5 C 0 km/h
807 30-09-2019 19:10:00 15.3 C 10.19 g/m*3 15.3 C 0 km/h
808 30-09-2019 19:15:00 15.1 C 10.19 g/m*3 15.1 C 0 km/h
809 30-09-2019 19:20:00 14.9 C 10.2 g/m*3 14.9 C 0 km/h
810 30-09-2019 19:25:00 14.7 C 10.07 g/m*3 14.7 C 0 km/h
811 30-09-2019 19:30:00 14.6 C 10.14 g/m*3 14.6 C 0 km/h
812 30-09-2019 19:35:00 14.6 C 10.26 g/m*3 14.6 C 3.2 km/h
813 30-09-2019 19:40:00 14.5 C 10.32 g/m*3 14.5 C 0 km/h
814 30-09-2019 19:45:00 14.4 C 10.26 g/m*3 14.4 C 0 km/h
815 30-09-2019 19:50:00 14.3 C 10.2 g/m*3 14.3 C 0 km/h
816 30-09-2019 19:55:00 14.3 C 10.32 g/m*3 14.3 C 1.6 km/h
817 30-09-2019 20:00:00 14.2 C 10.26 g/m*3 14.2 C 8.1 km/h
818 30-09-2019 20:05:00 14.3 C 10.32 g/m*3 14.3 C 0 km/h
819 30-09-2019 20:10:00 14.2 C 10.26 g/m*3 14.2 C 1.6 km/h
820 30-09-2019 20:15:00 14.2 C 10.38 g/m*3 14.2 C 4.8 km/h
821 30-09-2019 20:20:00 14.1 C 10.32 g/m*3 14.1 C 1.6 km/h
822 30-09-2019 20:25:00 14.1 C 10.32 g/m*3 14.1 C 1.6 km/h
823 30-09-2019 20:30:00 14 C 10.37 g/m*3 14 C 0 km/h
824 30-09-2019 20:35:00 14 C 10.37 g/m*3 14 C 6.4 km/h
825 30-09-2019 20:40:00 14.2 C 10.5 g/m*3 14.2 C 4.8 km/h
Sensor: Nr:Datum:Temp:Abs-Feuchte:Windchill:Wind:
Aussen-T/F 826 30-09-2019 20:45:00 14.3 C 10.57 g/m*3 14.3 C 4.8 km/h
827 30-09-2019 20:50:00 14.4 C 10.63 g/m*3 14.4 C 3.2 km/h
828 30-09-2019 20:55:00 14.5 C 10.7 g/m*3 14.5 C 3.2 km/h
829 30-09-2019 21:00:00 14.6 C 10.64 g/m*3 14.6 C 1.6 km/h
830 30-09-2019 21:05:00 14.7 C 10.7 g/m*3 14.7 C 6.4 km/h
831 30-09-2019 21:10:00 14.8 C 10.77 g/m*3 14.8 C 3.2 km/h
832 30-09-2019 21:15:00 14.8 C 10.77 g/m*3 14.8 C 4.8 km/h
833 30-09-2019 21:20:00 14.8 C 10.64 g/m*3 14.8 C 6.4 km/h
834 30-09-2019 21:25:00 14.8 C 10.64 g/m*3 14.8 C 8.1 km/h
835 30-09-2019 21:30:00 14.7 C 10.7 g/m*3 14.7 C 1.6 km/h
836 30-09-2019 21:35:00 14.7 C 10.7 g/m*3 14.7 C 0 km/h
837 30-09-2019 21:40:00 14.6 C 10.64 g/m*3 14.6 C 0 km/h
838 30-09-2019 21:45:00 14.6 C 10.76 g/m*3 14.6 C 4.8 km/h
839 30-09-2019 21:50:00 14.6 C 10.76 g/m*3 14.6 C 4.8 km/h
840 30-09-2019 21:55:00 14.6 C 10.76 g/m*3 14.6 C 3.2 km/h
841 30-09-2019 22:00:00 14.6 C 10.76 g/m*3 14.6 C 3.2 km/h
842 30-09-2019 22:05:00 14.6 C 10.76 g/m*3 14.6 C 6.4 km/h
843 30-09-2019 22:10:00 14.6 C 10.76 g/m*3 14.6 C 4.8 km/h
844 30-09-2019 22:15:00 14.7 C 10.7 g/m*3 14.7 C 4.8 km/h
845 30-09-2019 22:20:00 14.7 C 10.7 g/m*3 14.7 C 4.8 km/h
846 30-09-2019 22:25:00 14.7 C 10.7 g/m*3 14.7 C 1.6 km/h
847 30-09-2019 22:30:00 14.7 C 10.7 g/m*3 14.7 C 3.2 km/h
848 30-09-2019 22:35:00 14.7 C 10.7 g/m*3 14.7 C 1.6 km/h
849 30-09-2019 22:40:00 14.7 C 10.7 g/m*3 14.7 C 6.4 km/h
850 30-09-2019 22:45:00 14.7 C 10.7 g/m*3 14.7 C 3.2 km/h
Sensor: Nr:Datum:Temp:Abs-Feuchte:Windchill:Wind:
Aussen-T/F 851 30-09-2019 22:50:00 14.8 C 10.64 g/m*3 14.8 C 3.2 km/h
852 30-09-2019 22:55:00 14.7 C 10.58 g/m*3 14.7 C 0 km/h
853 30-09-2019 23:00:00 14.6 C 10.51 g/m*3 14.6 C 0 km/h
854 30-09-2019 23:05:00 14.5 C 10.45 g/m*3 14.5 C 0 km/h
855 30-09-2019 23:10:00 14.3 C 10.44 g/m*3 14.3 C 0 km/h
856 30-09-2019 23:15:00 14.2 C 10.38 g/m*3 14.2 C 0 km/h
857 30-09-2019 23:20:00 14.1 C 10.44 g/m*3 14.1 C 0 km/h
858 30-09-2019 23:25:00 14.1 C 10.44 g/m*3 14.1 C 0 km/h
859 30-09-2019 23:30:00 14.1 C 10.44 g/m*3 14.1 C 3.2 km/h
860 30-09-2019 23:35:00 14.1 C 10.44 g/m*3 14.1 C 3.2 km/h
861 30-09-2019 23:40:00 14.2 C 10.5 g/m*3 14.2 C 1.6 km/h
862 30-09-2019 23:45:00 14.2 C 10.5 g/m*3 14.2 C 0 km/h
863 30-09-2019 23:50:00 14.2 C 10.38 g/m*3 14.2 C 0 km/h
864 30-09-2019 23:55:00 14.2 C 10.38 g/m*3 14.2 C 4.8 km/h

Legende:
   Min
   Max


Maximal/Minimal-Werte vom 28.09.2019 - 30.09.2019

Sensor Min Max Avg
Temp
(Aussen-T/F)
12.7 °C
28-09-2019  01:25:00
19 °C
30-09-2019  17:00:00
15.58 °C
Abs-Feuchte
(Aussen-T/F)
9.22 g/m*3
30-09-2019  17:20:00
13.46 g/m*3
29-09-2019  22:40:00
10.94 g/m*3
Windchill
(Aussen-T/F)
12.7 C
28-09-2019  01:25:00
19 C
30-09-2019  17:00:00
15.57 C

Die Daten stammen von einer Davis Vantage Pro 2 Wetter-Station und werden unter Linux mit der Software wview2wettercgi und aufbereitet. Alle Angaben erfolgen ohne Gewähr für ihre Vollständigkeit oder Richtigkeit.
Kontakt: Rainer Krienke krienke@uni-koblenz.de . Meine Webseiten an der Uni Koblenz oder privat.
Version: $Revision: 0.78 $